Погода в Рыбном

Россия / Курганская область     54°23′54″N   63°30′39″E
темп.,
°C
ветер,
м/с
пор.,
м/с
влажн.,
%
обл.,
%
осадки,
мм/ч
давл.,
гПа
погр.,
м
11 апреля, вс
вс1123:00+1ю339697 0.0 103943
02:00+2ю3496100 0.0 103989
05:00+1ю369890 0.0 1039118
08:00+1ю47100100 0.0 1040209
11:00+2ю4695100 0.0 1040247
14:00+5ю5881100 0.0 1038345
17:00+7ююз4879100 0.0 1037345
20:00+3ююз488858 0.0 1037116
12 апреля, пн
пн1223:00+2ююз488817 0.0 1037129
02:00+2юз48855 0.0 1036135
05:00+1юз478261 0.0 1036103
08:00+4зюз367968 0.0 1036153
11:00+9з336787 0.0 1036293
14:00+13с236882 0.0 1036587
17:00+12с4479100 0.0 1036717
20:00+9ссв4692100 0.0 1037248
13 апреля, вт
вт1323:00+7ссв3786100 0.0 1039204
02:00+6ссв3690100 0.0 1039115
05:00+4св349128 0.0 104065
08:00+6всв238530 0.0 1041141
11:00+10в33650 0.0 1040602
14:00+12вюв22500 0.0 1039945
17:00+13юв22460 0.0 1038957
20:00+10юв22610 0.0 103710
14 апреля, ср
ср1423:00+8ю34770 0.0 103762
02:00+6ю34820 0.0 103648
05:00+5ююз33850 0.0 103525
08:00+7юз34815 0.0 1035130
11:00+12юз33575 0.0 1033502
14:00+15юз33425 0.0 1031810
17:00+16зюз23395 0.0 1029836
20:00+12юз22525 0.0 102811
15 апреля, чт
чт1523:00+10юз33595 0.0 102822
02:00+8юз33675 0.0 102728
05:00+7зюз33755 0.0 102624
08:00+9зюз24715 0.0 1026117
11:00+14юз33495 0.0 1024453
14:00+17зюз333836 0.0 1022879
17:00+17зюз333441 0.0 1021978
20:00+13юз33455 0.0 102016